DLH129 EDDN-EDDF

Flight info

Callsign DLH129
Flight time N/A
Altitude 24000
Route SUKAD1C/10 SUKAD DCT PIWAW T159 SPESA SPESA4C
Aircraft B738/M-SDE2E3FGHIRWXY/LB1

Departure

Time N/A
Airport Nuremberg Airport (EDDN)

Arrival

Time 2026-04-15 13:21
Airport Frankfurt Main Airport (EDDF)
Time Latitude Longitude Altitude Speed Heading
2026-04-15 13:09 49.87051 8.25315 11275 ft 354 kts 249°
2026-04-15 13:09 49.86195 8.21803 11126 ft 342 kts 249°
2026-04-15 13:09 49.85368 8.18406 10982 ft 331 kts 249°
2026-04-15 13:09 49.84568 8.15122 10822 ft 321 kts 249°
2026-04-15 13:10 49.83791 8.11944 10698 ft 311 kts 249°
2026-04-15 13:10 49.83037 8.08858 10570 ft 301 kts 249°
2026-04-15 13:10 49.82301 8.05863 10443 ft 292 kts 249°
2026-04-15 13:10 49.81597 8.02988 10321 ft 284 kts 249°
2026-04-15 13:11 49.80904 8.00164 10173 ft 277 kts 249°
2026-04-15 13:11 49.80219 7.97376 9873 ft 276 kts 249°
2026-04-15 13:11 49.79535 7.94601 9569 ft 275 kts 249°
2026-04-15 13:11 49.78856 7.91846 9276 ft 273 kts 249°
2026-04-15 13:12 49.78544 7.88996 9044 ft 270 kts 274°
2026-04-15 13:12 49.79107 7.86263 8794 ft 269 kts 300°
2026-04-15 13:12 49.80394 7.84162 8523 ft 270 kts 326°
2026-04-15 13:12 49.82135 7.83118 8254 ft 271 kts 352°
2026-04-15 13:13 49.84000 7.83360 7969 ft 271 kts 19°
2026-04-15 13:13 49.85603 7.84854 7708 ft 271 kts 45°
2026-04-15 13:13 49.86692 7.87199 7432 ft 269 kts 66°
2026-04-15 13:13 49.87359 7.89858 7174 ft 268 kts 71°
2026-04-15 13:14 49.87995 7.92566 6902 ft 268 kts 71°
2026-04-15 13:14 49.88646 7.95288 6619 ft 269 kts 70°
2026-04-15 13:14 49.89301 7.98008 6371 ft 268 kts 71°
2026-04-15 13:14 49.89951 8.00685 6255 ft 262 kts 71°
2026-04-15 13:15 49.90589 8.03291 6147 ft 256 kts 70°
2026-04-15 13:15 49.91216 8.05847 6050 ft 250 kts 70°
2026-04-15 13:15 49.91831 8.08346 5926 ft 245 kts 71°
2026-04-15 13:15 49.92438 8.10812 5746 ft 244 kts 70°
2026-04-15 13:16 49.93049 8.13275 5397 ft 249 kts 70°
2026-04-15 13:16 49.93675 8.15813 5104 ft 252 kts 71°
2026-04-15 13:16 49.94305 8.18369 4807 ft 255 kts 71°
2026-04-15 13:16 49.94711 8.20100 4632 ft 257 kts 71°
2026-04-15 13:18 49.98163 8.34054 2990 ft 245 kts 70°
2026-04-15 13:18 49.98747 8.36493 2666 ft 241 kts 71°
2026-04-15 13:18 49.99312 8.38932 2372 ft 240 kts 70°
2026-04-15 13:18 49.99886 8.41312 2019 ft 227 kts 71°
2026-04-15 13:19 50.00408 8.43530 1735 ft 210 kts 71°
2026-04-15 13:19 50.00893 8.45571 1448 ft 195 kts 71°
2026-04-15 13:19 50.01345 8.47496 1102 ft 186 kts 72°
2026-04-15 13:19 50.01784 8.49332 775 ft 173 kts 68°
2026-04-15 13:20 50.02154 8.50970 680 ft 154 kts 70°
2026-04-15 13:20 50.02525 8.52556 507 ft 158 kts 69°
2026-04-15 13:20 50.02916 8.54104 333 ft 145 kts 69°
2026-04-15 13:20 50.03232 8.55425 355 ft 113 kts 69°
2026-04-15 13:21 50.03465 8.56390 361 ft 78 kts 70°
2026-04-15 13:21 50.03621 8.56969 359 ft 34 kts 52°
2026-04-15 13:21 50.03787 8.57188 360 ft 26 kts 38°
2026-04-15 13:21 50.03923 8.57367 368 ft 24 kts 48°
2026-04-15 13:22 50.03999 8.57589 365 ft 24 kts 70°
2026-04-15 13:22 50.04043 8.57775 365 ft 12 kts 70°
2026-04-15 13:22 50.04099 8.57824 365 ft 10 kts 346°
2026-04-15 13:22 50.04162 8.57788 362 ft 8 kts 340°
2026-04-15 13:23 50.04175 8.57780 362 ft 0 kts 339°
2026-04-15 13:26 50.04202 8.57763 360 ft 9 kts 339°
2026-04-15 13:26 50.04298 8.57707 362 ft 20 kts 340°
2026-04-15 13:27 50.04424 8.57631 367 ft 20 kts 333°